Time,TemperatureF,DewpointF,PressureIn,WindDirection,WindDirectionDegrees,WindSpeedMPH,WindSpeedGustMPH,Humidity,HourlyPrecipIn,Conditions,Clouds,dailyrainin,SoftwareType,DateUTC
2013-02-01 00:00:00,56.2,43.8,30.10,North,360,1.0,2.0,63,0.00,,CLR,0.00,VWS V14.01,2013-02-01 08:00:00,
2013-02-01 00:01:00,56.2,43.8,30.10,North,360,2.0,2.0,63,0.00,,CLR,0.00,VWS V14.01,2013-02-01 08:01:00,
2013-02-01 00:06:00,56.2,43.4,30.10,North,360,2.0,3.0,62,0.00,,CLR,0.00,VWS V14.01,2013-02-01 08:06:00,
2013-02-01 00:11:00,56.3,43.0,30.10,North,360,1.0,3.0,61,0.00,,CLR,0.00,VWS V14.01,2013-02-01 08:11:00,
2013-02-01 00:15:00,56.3,42.6,30.09,North,360,2.0,3.0,60,0.00,,CLR,0.00,VWS V14.01,2013-02-01 08:15:00,
2013-02-01 00:16:00,56.3,42.6,30.09,North,360,2.0,3.0,60,0.00,,CLR,0.00,VWS V14.01,2013-02-01 08:16:00,
2013-02-01 00:21:00,56.5,42.4,30.09,North,360,4.0,4.0,59,0.00,,CLR,0.00,VWS V14.01,2013-02-01 08:21:00,
2013-02-01 00:26:00,56.7,41.7,30.09,North,358,2.0,4.0,57,0.00,,CLR,0.00,VWS V14.01,2013-02-01 08:26:00,
2013-02-01 00:30:00,56.9,40.9,30.09,NW,325,2.0,4.0,55,0.00,,CLR,0.00,VWS V14.01,2013-02-01 08:30:00,
2013-02-01 00:31:00,56.9,40.9,30.09,NW,325,1.0,4.0,55,0.00,,CLR,0.00,VWS V14.01,2013-02-01 08:31:00,
2013-02-01 00:36:00,57.0,42.4,30.09,NW,325,0.0,3.0,58,0.00,,CLR,0.00,VWS V14.01,2013-02-01 08:36:00,
2013-02-01 00:41:00,57.3,43.1,30.09,NW,325,1.0,3.0,59,0.00,,CLR,0.00,VWS V14.01,2013-02-01 08:41:00,
2013-02-01 00:45:00,57.3,41.3,30.09,NNW,334,3.0,4.0,55,0.00,,CLR,0.00,VWS V14.01,2013-02-01 08:45:00,
2013-02-01 00:46:00,57.3,41.8,30.09,NNW,335,2.0,3.0,56,0.00,,CLR,0.00,VWS V14.01,2013-02-01 08:46:00,
2013-02-01 00:51:00,57.3,39.3,30.09,WNW,293,3.0,5.0,51,0.00,,CLR,0.00,VWS V14.01,2013-02-01 08:51:00,
2013-02-01 00:56:00,57.0,40.5,30.09,NW,307,5.0,6.0,54,0.00,,CLR,0.00,VWS V14.01,2013-02-01 08:56:00,
2013-02-01 01:00:00,56.7,41.7,30.09,NNW,327,5.0,6.0,57,0.00,,CLR,0.00,VWS V14.01,2013-02-01 09:00:00,
2013-02-01 01:01:00,56.9,41.4,30.09,NW,323,6.0,6.0,56,0.00,,CLR,0.00,VWS V14.01,2013-02-01 09:01:00,
2013-02-01 01:06:00,56.6,41.6,30.09,NW,313,4.0,7.0,57,0.00,,CLR,0.00,VWS V14.01,2013-02-01 09:06:00,
2013-02-01 01:11:00,56.6,40.6,30.09,NW,314,5.0,7.0,55,0.00,,CLR,0.00,VWS V14.01,2013-02-01 09:11:00,
2013-02-01 01:15:00,56.6,42.0,30.09,NW,312,4.0,7.0,58,0.00,,CLR,0.00,VWS V14.01,2013-02-01 09:15:00,
2013-02-01 01:16:00,56.6,42.0,30.09,NW,319,3.0,7.0,58,0.00,,CLR,0.00,VWS V14.01,2013-02-01 09:16:00,
2013-02-01 01:21:00,56.6,42.5,30.09,WNW,297,4.0,5.0,59,0.00,,CLR,0.00,VWS V14.01,2013-02-01 09:21:00,
2013-02-01 01:26:00,56.5,42.4,30.09,NW,325,4.0,5.0,59,0.00,,CLR,0.00,VWS V14.01,2013-02-01 09:26:00,
2013-02-01 01:30:00,56.5,42.4,30.09,NW,316,2.0,6.0,59,0.00,,CLR,0.00,VWS V14.01,2013-02-01 09:30:00,
2013-02-01 01:31:00,56.5,42.4,30.09,NW,315,2.0,6.0,59,0.00,,CLR,0.00,VWS V14.01,2013-02-01 09:31:00,
2013-02-01 01:36:00,56.5,41.9,30.09,NW,316,2.0,3.0,58,0.00,,CLR,0.00,VWS V14.01,2013-02-01 09:36:00,
2013-02-01 01:41:00,56.6,42.5,30.09,NW,306,2.0,4.0,59,0.00,,CLR,0.00,VWS V14.01,2013-02-01 09:41:00,
2013-02-01 01:45:00,56.6,42.5,30.09,NW,312,2.0,4.0,59,0.00,,CLR,0.00,VWS V14.01,2013-02-01 09:45:00,
2013-02-01 01:46:00,56.6,42.5,30.09,NW,312,3.0,4.0,59,0.00,,CLR,0.00,VWS V14.01,2013-02-01 09:46:00,
2013-02-01 01:51:00,56.6,42.5,30.09,NW,321,3.0,4.0,59,0.00,,CLR,0.00,VWS V14.01,2013-02-01 09:51:00,
2013-02-01 01:56:00,56.6,42.0,30.09,NW,321,2.0,4.0,58,0.00,,CLR,0.00,VWS V14.01,2013-02-01 09:56:00,
2013-02-01 02:00:00,56.7,41.7,30.09,NW,321,3.0,4.0,57,0.00,,CLR,0.00,VWS V14.01,2013-02-01 10:00:00,
2013-02-01 02:01:00,56.7,41.7,30.09,NW,321,1.0,4.0,57,0.00,,CLR,0.00,VWS V14.01,2013-02-01 10:01:00,
2013-02-01 02:06:00,56.9,41.8,30.09,NW,321,2.0,3.0,57,0.00,,CLR,0.00,VWS V14.01,2013-02-01 10:06:00,
2013-02-01 02:11:00,56.7,40.3,30.09,NW,321,2.0,3.0,54,0.00,,CLR,0.00,VWS V14.01,2013-02-01 10:11:00,
2013-02-01 02:15:00,56.5,39.6,30.09,NNW,331,1.0,3.0,53,0.00,,CLR,0.00,VWS V14.01,2013-02-01 10:15:00,
2013-02-01 02:16:00,56.5,39.6,30.09,NNW,331,2.0,3.0,53,0.00,,CLR,0.00,VWS V14.01,2013-02-01 10:16:00,
2013-02-01 02:21:00,56.0,39.6,30.09,NNW,331,0.0,2.0,54,0.00,,CLR,0.00,VWS V14.01,2013-02-01 10:21:00,
2013-02-01 02:26:00,55.7,39.8,30.09,East,96,0.0,2.0,55,0.00,,CLR,0.00,VWS V14.01,2013-02-01 10:26:00,
2013-02-01 02:30:00,55.3,40.3,30.10,East,96,0.0,2.0,57,0.00,,CLR,0.00,VWS V14.01,2013-02-01 10:30:00,
2013-02-01 02:31:00,55.3,39.9,30.10,East,96,0.0,2.0,56,0.00,,CLR,0.00,VWS V14.01,2013-02-01 10:31:00,
2013-02-01 02:36:00,54.8,40.8,30.10,East,96,0.0,1.0,59,0.00,,CLR,0.00,VWS V14.01,2013-02-01 10:36:00,
2013-02-01 02:41:00,54.2,41.1,30.10,East,96,3.0,3.0,61,0.00,,CLR,0.00,VWS V14.01,2013-02-01 10:41:00,
2013-02-01 02:45:00,53.9,41.2,30.09,East,96,2.0,3.0,62,0.00,,CLR,0.00,VWS V14.01,2013-02-01 10:45:00,
2013-02-01 02:46:00,53.9,40.8,30.09,East,96,2.0,3.0,61,0.00,,CLR,0.00,VWS V14.01,2013-02-01 10:46:00,
2013-02-01 02:51:00,53.9,41.2,30.09,East,96,1.0,3.0,62,0.00,,CLR,0.00,VWS V14.01,2013-02-01 10:51:00,
2013-02-01 02:56:00,53.8,41.1,30.09,East,96,0.0,3.0,62,0.00,,CLR,0.00,VWS V14.01,2013-02-01 10:56:00,
2013-02-01 03:00:00,53.5,40.8,30.10,East,96,0.0,3.0,62,0.00,,CLR,0.00,VWS V14.01,2013-02-01 11:00:00,
2013-02-01 03:01:00,53.5,40.8,30.10,East,96,0.0,3.0,62,0.00,,CLR,0.00,VWS V14.01,2013-02-01 11:01:00,
2013-02-01 03:06:00,53.3,40.6,30.10,East,96,0.0,0.0,62,0.00,,CLR,0.00,VWS V14.01,2013-02-01 11:06:00,
2013-02-01 03:11:00,53.2,41.0,30.10,East,96,0.0,0.0,63,0.00,,CLR,0.00,VWS V14.01,2013-02-01 11:11:00,
2013-02-01 03:15:00,53.2,41.0,30.10,East,96,0.0,0.0,63,0.00,,CLR,0.00,VWS V14.01,2013-02-01 11:15:00,
2013-02-01 03:16:00,53.2,41.0,30.10,East,96,0.0,0.0,63,0.00,,CLR,0.00,VWS V14.01,2013-02-01 11:16:00,
2013-02-01 03:21:00,53.2,41.0,30.10,East,96,1.0,2.0,63,0.00,,CLR,0.00,VWS V14.01,2013-02-01 11:21:00,
2013-02-01 03:26:00,53.3,41.0,30.10,East,96,0.0,3.0,63,0.00,,CLR,0.00,VWS V14.01,2013-02-01 11:26:00,
2013-02-01 03:30:00,53.5,40.8,30.10,East,96,0.0,3.0,62,0.00,,CLR,0.00,VWS V14.01,2013-02-01 11:30:00,
2013-02-01 03:31:00,53.5,40.8,30.10,East,96,0.0,3.0,62,0.00,,CLR,0.00,VWS V14.01,2013-02-01 11:31:00,
2013-02-01 03:36:00,53.5,40.8,30.10,East,96,0.0,0.0,62,0.00,,CLR,0.00,VWS V14.01,2013-02-01 11:36:00,
2013-02-01 03:41:00,53.6,40.5,30.10,East,96,1.0,2.0,61,0.00,,CLR,0.00,VWS V14.01,2013-02-01 11:41:00,
2013-02-01 03:45:00,54.1,40.5,30.10,East,96,0.0,2.0,60,0.00,,CLR,0.00,VWS V14.01,2013-02-01 11:45:00,
2013-02-01 03:46:00,54.1,40.5,30.10,East,96,0.0,2.0,60,0.00,,CLR,0.00,VWS V14.01,2013-02-01 11:46:00,
2013-02-01 03:51:00,54.2,40.2,30.10,East,96,2.0,3.0,59,0.00,,CLR,0.00,VWS V14.01,2013-02-01 11:51:00,
2013-02-01 03:56:00,54.4,40.4,30.10,East,96,1.0,3.0,59,0.00,,CLR,0.00,VWS V14.01,2013-02-01 11:56:00,
2013-02-01 04:00:00,54.5,40.5,30.09,East,96,2.0,3.0,59,0.00,,CLR,0.00,VWS V14.01,2013-02-01 12:00:00,
2013-02-01 04:01:00,54.5,40.5,30.09,East,96,2.0,3.0,59,0.00,,CLR,0.00,VWS V14.01,2013-02-01 12:01:00,
2013-02-01 04:06:00,54.5,40.5,30.09,East,96,1.0,2.0,59,0.00,,CLR,0.00,VWS V14.01,2013-02-01 12:06:00,
2013-02-01 04:11:00,54.5,40.5,30.09,East,96,2.0,2.0,59,0.00,,CLR,0.00,VWS V14.01,2013-02-01 12:11:00,
2013-02-01 04:15:00,54.5,40.9,30.10,East,96,0.0,2.0,60,0.00,,CLR,0.00,VWS V14.01,2013-02-01 12:15:00,
2013-02-01 04:16:00,54.5,40.9,30.10,East,96,1.0,2.0,60,0.00,,CLR,0.00,VWS V14.01,2013-02-01 12:16:00,
2013-02-01 04:21:00,54.4,41.2,30.10,East,91,0.0,3.0,61,0.00,,CLR,0.00,VWS V14.01,2013-02-01 12:21:00,
2013-02-01 04:26:00,54.4,41.7,30.10,NNE,20,3.0,3.0,62,0.00,,CLR,0.00,VWS V14.01,2013-02-01 12:26:00,
2013-02-01 04:30:00,54.4,42.1,30.10,NNE,25,2.0,4.0,63,0.00,,CLR,0.00,VWS V14.01,2013-02-01 12:30:00,
2013-02-01 04:31:00,54.4,42.1,30.10,NNE,25,4.0,4.0,63,0.00,,CLR,0.00,VWS V14.01,2013-02-01 12:31:00,
2013-02-01 04:36:00,54.1,42.2,30.10,NNE,25,0.0,3.0,64,0.00,,CLR,0.00,VWS V14.01,2013-02-01 12:36:00,
2013-02-01 04:41:00,53.8,42.3,30.10,NNE,25,4.0,4.0,65,0.00,,CLR,0.00,VWS V14.01,2013-02-01 12:41:00,
2013-02-01 04:45:00,53.3,42.2,30.10,NNE,25,2.0,4.0,66,0.00,,CLR,0.00,VWS V14.01,2013-02-01 12:45:00,
2013-02-01 04:46:00,53.3,42.2,30.10,NNE,25,2.0,4.0,66,0.00,,CLR,0.00,VWS V14.01,2013-02-01 12:46:00,
2013-02-01 04:51:00,53.1,42.1,30.10,NNE,25,4.0,4.0,66,0.00,,CLR,0.00,VWS V14.01,2013-02-01 12:51:00,
2013-02-01 04:56:00,53.1,41.7,30.10,NNE,25,0.0,4.0,65,0.00,,CLR,0.00,VWS V14.01,2013-02-01 12:56:00,
2013-02-01 05:00:00,53.2,41.3,30.10,NNE,25,1.0,4.0,64,0.00,,CLR,0.00,VWS V14.01,2013-02-01 13:00:00,
2013-02-01 05:01:00,53.2,41.3,30.10,NNE,25,2.0,4.0,64,0.00,,CLR,0.00,VWS V14.01,2013-02-01 13:01:00,
2013-02-01 05:06:00,53.3,41.5,30.10,NNE,25,0.0,2.0,64,0.00,,CLR,0.00,VWS V14.01,2013-02-01 13:06:00,
2013-02-01 05:11:00,53.6,41.3,30.10,NNE,25,0.0,2.0,63,0.00,,CLR,0.00,VWS V14.01,2013-02-01 13:11:00,
2013-02-01 05:15:00,53.6,40.9,30.10,NNE,25,0.0,2.0,62,0.00,,CLR,0.00,VWS V14.01,2013-02-01 13:15:00,
2013-02-01 05:16:00,53.6,40.9,30.10,NNE,25,0.0,2.0,62,0.00,,CLR,0.00,VWS V14.01,2013-02-01 13:16:00,
2013-02-01 05:21:00,53.8,41.1,30.10,NNE,25,0.0,0.0,62,0.00,,CLR,0.00,VWS V14.01,2013-02-01 13:21:00,
2013-02-01 05:26:00,54.1,41.0,30.10,NNE,25,0.0,0.0,61,0.00,,CLR,0.00,VWS V14.01,2013-02-01 13:26:00,
2013-02-01 05:30:00,54.2,41.5,30.10,NNE,25,0.0,0.0,62,0.00,,CLR,0.00,VWS V14.01,2013-02-01 13:30:00,
2013-02-01 05:31:00,54.2,41.5,30.10,NNE,25,0.0,0.0,62,0.00,,CLR,0.00,VWS V14.01,2013-02-01 13:31:00,
2013-02-01 05:36:00,54.2,41.1,30.10,NNE,25,0.0,0.0,61,0.00,,CLR,0.00,VWS V14.01,2013-02-01 13:36:00,
2013-02-01 05:41:00,54.2,41.1,30.10,NNE,25,0.0,0.0,61,0.00,,CLR,0.00,VWS V14.01,2013-02-01 13:41:00,
2013-02-01 05:45:00,54.2,41.1,30.09,NNE,25,0.0,0.0,61,0.00,,CLR,0.00,VWS V14.01,2013-02-01 13:45:00,
2013-02-01 05:46:00,54.2,41.1,30.09,NNE,25,0.0,0.0,61,0.00,,CLR,0.00,VWS V14.01,2013-02-01 13:46:00,
2013-02-01 05:51:00,54.1,41.4,30.09,NNE,25,0.0,0.0,62,0.00,,CLR,0.00,VWS V14.01,2013-02-01 13:51:00,
2013-02-01 05:56:00,54.2,41.1,30.09,NNE,25,0.0,0.0,61,0.00,,CLR,0.00,VWS V14.01,2013-02-01 13:56:00,
2013-02-01 06:00:00,54.5,40.9,30.09,NNE,25,0.0,0.0,60,0.00,,CLR,0.00,VWS V14.01,2013-02-01 14:00:00,
2013-02-01 06:01:00,54.5,41.3,30.09,NNE,25,0.0,0.0,61,0.00,,CLR,0.00,VWS V14.01,2013-02-01 14:01:00,
2013-02-01 06:06:00,54.7,40.7,30.09,NNE,25,0.0,0.0,59,0.00,,CLR,0.00,VWS V14.01,2013-02-01 14:06:00,
2013-02-01 06:11:00,55.1,40.6,30.09,NNE,25,0.0,1.0,58,0.00,,CLR,0.00,VWS V14.01,2013-02-01 14:11:00,
2013-02-01 06:15:00,55.4,40.9,30.10,NNE,25,0.0,1.0,58,0.00,,CLR,0.00,VWS V14.01,2013-02-01 14:15:00,
2013-02-01 06:16:00,55.4,40.9,30.10,NNE,25,0.0,1.0,58,0.00,,CLR,0.00,VWS V14.01,2013-02-01 14:16:00,
2013-02-01 06:22:00,55.6,40.6,30.10,NNE,25,1.0,1.0,57,0.00,,CLR,0.00,VWS V14.01,2013-02-01 14:22:00,
2013-02-01 06:26:00,55.7,40.3,30.10,NNE,25,0.0,1.0,56,0.00,,CLR,0.00,VWS V14.01,2013-02-01 14:26:00,
2013-02-01 06:30:00,55.9,40.5,30.10,NNE,25,0.0,1.0,56,0.00,,CLR,0.00,VWS V14.01,2013-02-01 14:30:00,
2013-02-01 06:31:00,55.9,40.5,30.10,NNE,25,0.0,1.0,56,0.00,,CLR,0.00,VWS V14.01,2013-02-01 14:31:00,
2013-02-01 06:36:00,55.9,40.5,30.10,NNE,25,0.0,0.0,56,0.00,,CLR,0.00,VWS V14.01,2013-02-01 14:36:00,
2013-02-01 06:41:00,55.6,40.6,30.10,NNE,25,0.0,0.0,57,0.00,,CLR,0.00,VWS V14.01,2013-02-01 14:41:00,
2013-02-01 06:45:00,55.3,40.8,30.10,NNE,25,0.0,0.0,58,0.00,,CLR,0.00,VWS V14.01,2013-02-01 14:45:00,
2013-02-01 06:46:00,55.3,40.8,30.11,NNE,25,0.0,0.0,58,0.00,,CLR,0.00,VWS V14.01,2013-02-01 14:46:00,
2013-02-01 06:51:00,55.1,40.6,30.11,NNE,25,0.0,0.0,58,0.00,,CLR,0.00,VWS V14.01,2013-02-01 14:51:00,
2013-02-01 06:56:00,55.1,40.2,30.11,NNE,25,0.0,2.0,57,0.00,,CLR,0.00,VWS V14.01,2013-02-01 14:56:00,
2013-02-01 07:00:00,55.1,40.2,30.10,NNE,25,0.0,2.0,57,0.00,,CLR,0.00,VWS V14.01,2013-02-01 15:00:00,
2013-02-01 07:01:00,55.1,40.2,30.11,NNE,25,0.0,2.0,57,0.00,,CLR,0.00,VWS V14.01,2013-02-01 15:01:00,
2013-02-01 07:06:00,55.1,40.2,30.11,NNE,25,2.0,3.0,57,0.00,,CLR,0.00,VWS V14.01,2013-02-01 15:06:00,
2013-02-01 07:11:00,55.3,39.9,30.11,NNE,25,2.0,3.0,56,0.00,,CLR,0.00,VWS V14.01,2013-02-01 15:11:00,
2013-02-01 07:15:00,55.6,39.7,30.11,NNE,25,2.0,3.0,55,0.00,,CLR,0.00,VWS V14.01,2013-02-01 15:15:00,
2013-02-01 07:16:00,55.6,39.7,30.11,NNE,25,2.0,3.0,55,0.00,,CLR,0.00,VWS V14.01,2013-02-01 15:16:00,
2013-02-01 07:21:00,55.7,39.3,30.11,NNE,25,1.0,2.0,54,0.00,,CLR,0.00,VWS V14.01,2013-02-01 15:21:00,
2013-02-01 07:26:00,55.9,39.5,30.11,NNE,25,0.0,2.0,54,0.00,,CLR,0.00,VWS V14.01,2013-02-01 15:26:00,
2013-02-01 07:30:00,55.7,39.3,30.10,NNE,25,0.0,2.0,54,0.00,,CLR,0.00,VWS V14.01,2013-02-01 15:30:00,
2013-02-01 07:31:00,55.7,39.3,30.11,NNE,25,0.0,2.0,54,0.00,,CLR,0.00,VWS V14.01,2013-02-01 15:31:00,
2013-02-01 07:36:00,55.6,39.2,30.11,NNE,25,0.0,0.0,54,0.00,,CLR,0.00,VWS V14.01,2013-02-01 15:36:00,
2013-02-01 07:41:00,55.4,40.0,30.11,NNE,25,0.0,0.0,56,0.00,,CLR,0.00,VWS V14.01,2013-02-01 15:41:00,
2013-02-01 07:45:00,55.6,39.7,30.11,NNE,25,0.0,2.0,55,0.00,,CLR,0.00,VWS V14.01,2013-02-01 15:45:00,
2013-02-01 07:46:00,55.4,39.5,30.11,NNE,25,0.0,2.0,55,0.00,,CLR,0.00,VWS V14.01,2013-02-01 15:46:00,
2013-02-01 07:51:00,55.6,40.2,30.11,NNE,25,0.0,0.0,56,0.00,,CLR,0.00,VWS V14.01,2013-02-01 15:51:00,
2013-02-01 07:56:00,55.6,40.2,30.11,NNE,25,0.0,0.0,56,0.00,,CLR,0.00,VWS V14.01,2013-02-01 15:56:00,
2013-02-01 08:00:00,55.7,40.3,30.11,NNE,25,0.0,0.0,56,0.00,,CLR,0.00,VWS V14.01,2013-02-01 16:00:00,
2013-02-01 08:01:00,55.7,40.3,30.11,NNE,25,0.0,0.0,56,0.00,,CLR,0.00,VWS V14.01,2013-02-01 16:01:00,
2013-02-01 08:06:00,55.7,39.8,30.11,NNE,25,0.0,0.0,55,0.00,,CLR,0.00,VWS V14.01,2013-02-01 16:06:00,
2013-02-01 08:11:00,55.9,40.0,30.11,NNE,25,0.0,1.0,55,0.00,,CLR,0.00,VWS V14.01,2013-02-01 16:11:00,
2013-02-01 08:15:00,56.3,41.7,30.10,NNE,25,0.0,1.0,58,0.00,,CLR,0.00,VWS V14.01,2013-02-01 16:15:00,
2013-02-01 08:16:00,56.2,41.6,30.11,NNE,25,0.0,1.0,58,0.00,,CLR,0.00,VWS V14.01,2013-02-01 16:16:00,
2013-02-01 08:21:00,56.6,42.0,30.11,NNE,25,0.0,1.0,58,0.00,,CLR,0.00,VWS V14.01,2013-02-01 16:21:00,
2013-02-01 08:26:00,57.0,40.5,30.11,NNE,25,1.0,1.0,54,0.00,,CLR,0.00,VWS V14.01,2013-02-01 16:26:00,
2013-02-01 08:30:00,57.6,41.1,30.10,NNE,25,0.0,2.0,54,0.00,,CLR,0.00,VWS V14.01,2013-02-01 16:30:00,
2013-02-01 08:31:00,57.5,41.0,30.10,NNE,25,1.0,2.0,54,0.00,,CLR,0.00,VWS V14.01,2013-02-01 16:31:00,
2013-02-01 08:36:00,57.8,42.2,30.10,NNE,25,0.0,2.0,56,0.00,,CLR,0.00,VWS V14.01,2013-02-01 16:36:00,
2013-02-01 08:41:00,58.0,43.3,30.10,NNE,25,0.0,2.0,58,0.00,,CLR,0.00,VWS V14.01,2013-02-01 16:41:00,
2013-02-01 08:45:00,58.3,43.2,30.10,NNE,25,1.0,2.0,57,0.00,,CLR,0.00,VWS V14.01,2013-02-01 16:45:00,
2013-02-01 08:46:00,58.1,42.0,30.10,NNE,25,0.0,2.0,55,0.00,,CLR,0.00,VWS V14.01,2013-02-01 16:46:00,
2013-02-01 08:51:00,58.4,42.3,30.10,NNE,25,1.0,2.0,55,0.00,,CLR,0.00,VWS V14.01,2013-02-01 16:51:00,
2013-02-01 08:56:00,58.4,42.8,30.10,WNW,291,3.0,3.0,56,0.00,,CLR,0.00,VWS V14.01,2013-02-01 16:56:00,
2013-02-01 09:00:00,58.3,43.2,30.11,WNW,291,1.0,3.0,57,0.00,,CLR,0.00,VWS V14.01,2013-02-01 17:00:00,
2013-02-01 09:01:00,58.3,42.2,30.11,WNW,291,2.0,3.0,55,0.00,,CLR,0.00,VWS V14.01,2013-02-01 17:01:00,
2013-02-01 09:06:00,58.3,42.7,30.11,WNW,291,0.0,2.0,56,0.00,,CLR,0.00,VWS V14.01,2013-02-01 17:06:00,
2013-02-01 09:11:00,58.4,43.7,30.11,WNW,291,0.0,2.0,58,0.00,,CLR,0.00,VWS V14.01,2013-02-01 17:11:00,
2013-02-01 09:15:00,58.6,43.9,30.12,WNW,291,1.0,2.0,58,0.00,,CLR,0.00,VWS V14.01,2013-02-01 17:15:00,
2013-02-01 09:16:00,58.6,43.9,30.11,WNW,291,1.0,2.0,58,0.00,,CLR,0.00,VWS V14.01,2013-02-01 17:16:00,
2013-02-01 09:21:00,58.6,43.9,30.11,WNW,291,1.0,2.0,58,0.00,,CLR,0.00,VWS V14.01,2013-02-01 17:21:00,
2013-02-01 09:26:00,58.6,43.0,30.11,WNW,291,2.0,3.0,56,0.00,,CLR,0.00,VWS V14.01,2013-02-01 17:26:00,
2013-02-01 09:30:00,58.6,43.0,30.12,WSW,258,2.0,3.0,56,0.00,,CLR,0.00,VWS V14.01,2013-02-01 17:30:00,
2013-02-01 09:31:00,58.6,43.4,30.12,WSW,258,2.0,3.0,57,0.00,,CLR,0.00,VWS V14.01,2013-02-01 17:31:00,
2013-02-01 09:36:00,58.7,43.1,30.12,WSW,258,3.0,3.0,56,0.00,,CLR,0.00,VWS V14.01,2013-02-01 17:36:00,
2013-02-01 09:41:00,58.9,41.8,30.12,WSW,258,3.0,3.0,53,0.00,,CLR,0.00,VWS V14.01,2013-02-01 17:41:00,
2013-02-01 09:45:00,58.9,41.8,30.12,WSW,256,3.0,3.0,53,0.00,,CLR,0.00,VWS V14.01,2013-02-01 17:45:00,
2013-02-01 09:46:00,58.9,41.8,30.12,WSW,257,2.0,3.0,53,0.00,,CLR,0.00,VWS V14.01,2013-02-01 17:46:00,
2013-02-01 09:51:00,59.6,42.0,30.12,WSW,243,0.0,4.0,52,0.00,,CLR,0.00,VWS V14.01,2013-02-01 17:51:00,
2013-02-01 09:56:00,61.3,43.0,30.12,SSW,210,0.0,4.0,51,0.00,,CLR,0.00,VWS V14.01,2013-02-01 17:56:00,
2013-02-01 10:00:00,62.9,44.5,30.11,ESE,122,0.0,4.0,51,0.00,,CLR,0.00,VWS V14.01,2013-02-01 18:00:00,
2013-02-01 10:01:00,62.9,44.5,30.11,ESE,122,0.0,4.0,51,0.00,,CLR,0.00,VWS V14.01,2013-02-01 18:01:00,
2013-02-01 10:06:00,64.0,43.9,30.11,ESE,122,0.0,2.0,48,0.00,,CLR,0.00,VWS V14.01,2013-02-01 18:06:00,
2013-02-01 10:11:00,65.5,44.8,30.11,SSW,203,0.0,2.0,47,0.00,,CLR,0.00,VWS V14.01,2013-02-01 18:11:00,
2013-02-01 10:15:00,65.6,44.3,30.11,SE,135,0.0,2.0,46,0.00,,CLR,0.00,VWS V14.01,2013-02-01 18:15:00,
2013-02-01 10:16:00,65.6,44.8,30.11,SE,135,0.0,2.0,47,0.00,,CLR,0.00,VWS V14.01,2013-02-01 18:16:00,
2013-02-01 10:21:00,66.3,44.9,30.11,SE,134,0.0,2.0,46,0.00,,CLR,0.00,VWS V14.01,2013-02-01 18:21:00,
2013-02-01 10:27:00,66.1,46.4,30.11,SE,135,0.0,2.0,49,0.00,,CLR,0.00,VWS V14.01,2013-02-01 18:27:00,
2013-02-01 10:30:00,65.6,46.0,30.10,NE,52,0.0,2.0,49,0.00,,CLR,0.00,VWS V14.01,2013-02-01 18:30:00,
2013-02-01 10:32:00,65.5,45.8,30.11,NE,52,0.0,2.0,49,0.00,,CLR,0.00,VWS V14.01,2013-02-01 18:32:00,
2013-02-01 10:37:00,66.4,46.1,30.11,NE,52,0.0,3.0,48,0.00,,CLR,0.00,VWS V14.01,2013-02-01 18:37:00,
2013-02-01 10:42:00,66.4,45.0,30.11,NE,52,0.0,3.0,46,0.00,,CLR,0.00,VWS V14.01,2013-02-01 18:42:00,
2013-02-01 10:45:00,67.6,44.9,30.09,WNW,284,2.0,4.0,44,0.00,,CLR,0.00,VWS V14.01,2013-02-01 18:45:00,
2013-02-01 10:47:00,67.6,44.9,30.09,NW,323,3.0,3.0,44,0.00,,CLR,0.00,VWS V14.01,2013-02-01 18:47:00,
2013-02-01 10:52:00,66.4,46.7,30.09,WSW,256,1.0,3.0,49,0.00,,CLR,0.00,VWS V14.01,2013-02-01 18:52:00,
2013-02-01 10:57:00,65.2,46.1,30.09,WSW,254,2.0,4.0,50,0.00,,CLR,0.00,VWS V14.01,2013-02-01 18:57:00,
2013-02-01 11:00:00,66.6,47.4,30.09,West,277,3.0,5.0,50,0.00,,CLR,0.00,VWS V14.01,2013-02-01 19:00:00,
2013-02-01 11:02:00,66.4,47.2,30.09,West,278,0.0,5.0,50,0.00,,CLR,0.00,VWS V14.01,2013-02-01 19:02:00,
2013-02-01 11:07:00,66.0,47.4,30.09,WSW,250,0.0,4.0,51,0.00,,CLR,0.00,VWS V14.01,2013-02-01 19:07:00,
2013-02-01 11:12:00,65.8,47.2,30.09,West,260,3.0,4.0,51,0.00,,CLR,0.00,VWS V14.01,2013-02-01 19:12:00,
2013-02-01 11:15:00,67.1,48.9,30.09,WNW,299,2.0,4.0,52,0.00,,CLR,0.00,VWS V14.01,2013-02-01 19:15:00,
2013-02-01 11:17:00,66.9,48.2,30.09,WNW,299,4.0,4.0,51,0.00,,CLR,0.00,VWS V14.01,2013-02-01 19:17:00,
2013-02-01 11:22:00,67.1,47.3,30.09,West,276,2.0,3.0,49,0.00,,CLR,0.00,VWS V14.01,2013-02-01 19:22:00,
2013-02-01 11:27:00,68.1,49.3,30.09,West,277,0.0,3.0,51,0.00,,CLR,0.00,VWS V14.01,2013-02-01 19:27:00,
2013-02-01 11:30:00,69.1,47.5,30.08,NNE,25,0.0,3.0,46,0.00,,CLR,0.00,VWS V14.01,2013-02-01 19:30:00,
2013-02-01 11:32:00,69.1,47.5,30.08,NNE,25,0.0,3.0,46,0.00,,CLR,0.00,VWS V14.01,2013-02-01 19:32:00,
2013-02-01 11:37:00,68.6,48.2,30.08,SSW,198,1.0,2.0,48,0.00,,CLR,0.00,VWS V14.01,2013-02-01 19:37:00,
2013-02-01 11:42:00,67.8,48.5,30.08,SW,233,0.0,4.0,50,0.00,,CLR,0.00,VWS V14.01,2013-02-01 19:42:00,
2013-02-01 11:45:00,67.1,50.4,30.08,SW,233,0.0,4.0,55,0.00,,CLR,0.00,VWS V14.01,2013-02-01 19:45:00,
2013-02-01 11:47:00,67.1,47.9,30.08,SW,233,0.0,4.0,50,0.00,,CLR,0.00,VWS V14.01,2013-02-01 19:47:00,
2013-02-01 11:52:00,67.6,48.8,30.08,SSW,205,0.0,3.0,51,0.00,,CLR,0.00,VWS V14.01,2013-02-01 19:52:00,
2013-02-01 11:57:00,68.9,50.6,30.08,South,183,2.0,3.0,52,0.00,,CLR,0.00,VWS V14.01,2013-02-01 19:57:00,
2013-02-01 12:00:00,69.1,48.6,30.08,SW,225,1.0,3.0,48,0.00,,CLR,0.00,VWS V14.01,2013-02-01 20:00:00,
2013-02-01 12:02:00,69.1,48.6,30.08,SW,225,0.0,3.0,48,0.00,,CLR,0.00,VWS V14.01,2013-02-01 20:02:00,
2013-02-01 12:07:00,69.8,49.2,30.08,SSW,192,0.0,2.0,48,0.00,,CLR,0.00,VWS V14.01,2013-02-01 20:07:00,
2013-02-01 12:12:00,70.1,50.6,30.08,SE,143,1.0,4.0,50,0.00,,CLR,0.00,VWS V14.01,2013-02-01 20:12:00,
2013-02-01 12:15:00,70.3,51.3,30.07,SE,143,1.0,5.0,51,0.00,,CLR,0.00,VWS V14.01,2013-02-01 20:15:00,
2013-02-01 12:17:00,70.1,51.7,30.07,SSW,197,0.0,5.0,52,0.00,,CLR,0.00,VWS V14.01,2013-02-01 20:17:00,
2013-02-01 12:22:00,70.1,51.2,30.07,SSE,154,2.0,5.0,51,0.00,,CLR,0.00,VWS V14.01,2013-02-01 20:22:00,
2013-02-01 12:27:00,69.6,49.6,30.07,South,176,0.0,5.0,49,0.00,,CLR,0.00,VWS V14.01,2013-02-01 20:27:00,
2013-02-01 12:30:00,69.6,49.1,30.06,SSE,160,3.0,5.0,48,0.00,,CLR,0.00,VWS V14.01,2013-02-01 20:30:00,
2013-02-01 12:31:00,69.6,48.5,30.06,SW,217,1.0,5.0,47,0.00,,CLR,0.00,VWS V14.01,2013-02-01 20:31:00,
2013-02-01 12:36:00,69.9,51.0,30.06,South,175,0.0,4.0,51,0.00,,CLR,0.00,VWS V14.01,2013-02-01 20:36:00,
2013-02-01 12:42:00,69.9,45.8,30.06,ESE,102,0.0,4.0,42,0.00,,CLR,0.00,VWS V14.01,2013-02-01 20:42:00,
2013-02-01 12:45:00,70.4,48.1,30.05,SE,146,1.0,4.0,45,0.00,,CLR,0.00,VWS V14.01,2013-02-01 20:45:00,
2013-02-01 12:47:00,70.3,48.0,30.05,ESE,121,2.0,4.0,45,0.00,,CLR,0.00,VWS V14.01,2013-02-01 20:47:00,
2013-02-01 12:52:00,70.3,47.4,30.05,ESE,119,1.0,3.0,44,0.00,,CLR,0.00,VWS V14.01,2013-02-01 20:52:00,
2013-02-01 12:57:00,70.1,43.3,30.05,SE,144,4.0,9.0,38,0.00,,CLR,0.00,VWS V14.01,2013-02-01 20:57:00,
2013-02-01 13:00:00,70.3,44.2,30.05,SSE,158,1.0,9.0,39,0.00,,CLR,0.00,VWS V14.01,2013-02-01 21:00:00,
2013-02-01 13:02:00,70.3,43.5,30.05,East,91,3.0,9.0,38,0.00,,CLR,0.00,VWS V14.01,2013-02-01 21:02:00,
2013-02-01 13:07:00,69.9,43.2,30.05,ESE,104,2.0,6.0,38,0.00,,CLR,0.00,VWS V14.01,2013-02-01 21:07:00,
2013-02-01 13:12:00,70.1,42.7,30.05,SE,135,4.0,6.0,37,0.00,,CLR,0.00,VWS V14.01,2013-02-01 21:12:00,
2013-02-01 13:15:00,70.3,46.8,30.04,ENE,78,6.0,6.0,43,0.00,,CLR,0.00,VWS V14.01,2013-02-01 21:15:00,
2013-02-01 13:17:00,70.3,46.8,30.04,ESE,110,3.0,6.0,43,0.00,,CLR,0.00,VWS V14.01,2013-02-01 21:17:00,
2013-02-01 13:22:00,70.6,43.1,30.04,East,94,5.0,6.0,37,0.00,,CLR,0.00,VWS V14.01,2013-02-01 21:22:00,
2013-02-01 13:27:00,70.4,42.9,30.04,ESE,114,0.0,6.0,37,0.00,,CLR,0.00,VWS V14.01,2013-02-01 21:27:00,
2013-02-01 13:30:00,70.4,42.2,30.04,SE,128,5.0,6.0,36,0.00,,CLR,0.00,VWS V14.01,2013-02-01 21:30:00,
2013-02-01 13:32:00,70.4,43.6,30.04,SSE,152,5.0,6.0,38,0.00,,CLR,0.00,VWS V14.01,2013-02-01 21:32:00,
2013-02-01 13:37:00,69.9,43.2,30.04,SE,135,0.0,5.0,38,0.00,,CLR,0.00,VWS V14.01,2013-02-01 21:37:00,
2013-02-01 13:42:00,70.6,45.1,30.04,ENE,57,0.0,5.0,40,0.00,,CLR,0.00,VWS V14.01,2013-02-01 21:42:00,
2013-02-01 13:45:00,70.1,43.3,30.04,SSE,155,1.0,5.0,38,0.00,,CLR,0.00,VWS V14.01,2013-02-01 21:45:00,
2013-02-01 13:47:00,70.3,43.5,30.04,ESE,116,0.0,5.0,38,0.00,,CLR,0.00,VWS V14.01,2013-02-01 21:47:00,
2013-02-01 13:52:00,70.3,48.0,30.04,SE,139,0.0,3.0,45,0.00,,CLR,0.00,VWS V14.01,2013-02-01 21:52:00,
2013-02-01 13:57:00,69.8,45.7,30.04,SSW,204,2.0,6.0,42,0.00,,CLR,0.00,VWS V14.01,2013-02-01 21:57:00,
2013-02-01 14:00:00,69.4,46.0,30.04,South,169,0.0,6.0,43,0.00,,CLR,0.00,VWS V14.01,2013-02-01 22:00:00,
2013-02-01 14:02:00,69.4,47.2,30.04,SSE,165,0.0,6.0,45,0.00,,CLR,0.00,VWS V14.01,2013-02-01 22:02:00,
2013-02-01 14:07:00,69.3,45.2,30.04,SW,221,2.0,3.0,42,0.00,,CLR,0.00,VWS V14.01,2013-02-01 22:07:00,
2013-02-01 14:12:00,68.6,45.8,30.04,SSW,200,3.0,3.0,44,0.00,,CLR,0.00,VWS V14.01,2013-02-01 22:12:00,
2013-02-01 14:15:00,68.3,46.7,30.04,SE,143,3.0,3.0,46,0.00,,CLR,0.00,VWS V14.01,2013-02-01 22:15:00,
2013-02-01 14:17:00,68.3,46.7,30.05,SE,143,3.0,3.0,46,0.00,,CLR,0.00,VWS V14.01,2013-02-01 22:17:00,
2013-02-01 14:22:00,68.3,46.7,30.05,SSE,150,0.0,3.0,46,0.00,,CLR,0.00,VWS V14.01,2013-02-01 22:22:00,
2013-02-01 14:27:00,67.8,48.0,30.05,ESE,104,5.0,5.0,49,0.00,,CLR,0.00,VWS V14.01,2013-02-01 22:27:00,
2013-02-01 14:30:00,67.8,47.4,30.04,ESE,104,0.0,5.0,48,0.00,,CLR,0.00,VWS V14.01,2013-02-01 22:30:00,
2013-02-01 14:32:00,67.8,47.4,30.05,ESE,104,0.0,0.0,48,0.00,,CLR,0.00,VWS V14.01,2013-02-01 22:32:00,
2013-02-01 14:37:00,67.4,47.6,30.05,ESE,104,0.0,4.0,49,0.00,,CLR,0.00,VWS V14.01,2013-02-01 22:37:00,
2013-02-01 14:42:00,66.8,49.1,30.05,ESE,104,1.0,4.0,53,0.00,,CLR,0.00,VWS V14.01,2013-02-01 22:42:00,
2013-02-01 14:45:00,66.1,49.0,30.05,ESE,108,2.0,5.0,54,0.00,,CLR,0.00,VWS V14.01,2013-02-01 22:45:00,
2013-02-01 14:47:00,66.1,49.0,30.05,ESE,112,2.0,2.0,54,0.00,,CLR,0.00,VWS V14.01,2013-02-01 22:47:00,
2013-02-01 14:52:00,65.3,48.2,30.05,SSE,160,4.0,6.0,54,0.00,,CLR,0.00,VWS V14.01,2013-02-01 22:52:00,
2013-02-01 14:57:00,64.5,49.0,30.05,ESE,117,0.0,6.0,57,0.00,,CLR,0.00,VWS V14.01,2013-02-01 22:57:00,
2013-02-01 15:00:00,64.3,48.8,30.06,SSW,205,2.0,6.0,57,0.00,,CLR,0.00,VWS V14.01,2013-02-01 23:00:00,
2013-02-01 15:02:00,64.3,48.8,30.06,SSW,205,2.0,2.0,57,0.00,,CLR,0.00,VWS V14.01,2013-02-01 23:02:00,
2013-02-01 15:07:00,63.9,48.4,30.06,ESE,104,0.0,3.0,57,0.00,,CLR,0.00,VWS V14.01,2013-02-01 23:07:00,
2013-02-01 15:12:00,63.4,47.9,30.06,ESE,104,0.0,3.0,57,0.00,,CLR,0.00,VWS V14.01,2013-02-01 23:12:00,
2013-02-01 15:15:00,63.1,47.6,30.06,ESE,104,0.0,3.0,57,0.00,,CLR,0.00,VWS V14.01,2013-02-01 23:15:00,
2013-02-01 15:17:00,63.1,47.6,30.06,ESE,104,1.0,1.0,57,0.00,,CLR,0.00,VWS V14.01,2013-02-01 23:17:00,
2013-02-01 15:22:00,62.7,47.3,30.06,East,96,0.0,5.0,57,0.00,,CLR,0.00,VWS V14.01,2013-02-01 23:22:00,
2013-02-01 15:27:00,62.4,46.5,30.06,East,87,1.0,5.0,56,0.00,,CLR,0.00,VWS V14.01,2013-02-01 23:27:00,
2013-02-01 15:30:00,62.1,46.7,30.06,East,87,0.0,5.0,57,0.00,,CLR,0.00,VWS V14.01,2013-02-01 23:30:00,
2013-02-01 15:32:00,62.1,46.7,30.07,East,87,0.0,0.0,57,0.00,,CLR,0.00,VWS V14.01,2013-02-01 23:32:00,
2013-02-01 15:37:00,62.0,46.6,30.07,SSE,152,1.0,1.0,57,0.00,,CLR,0.00,VWS V14.01,2013-02-01 23:37:00,
2013-02-01 15:42:00,61.8,46.9,30.07,SSW,203,0.0,3.0,58,0.00,,CLR,0.00,VWS V14.01,2013-02-01 23:42:00,
2013-02-01 15:45:00,61.3,46.4,30.07,NE,54,0.0,8.0,58,0.00,,CLR,0.00,VWS V14.01,2013-02-01 23:45:00,
2013-02-01 15:47:00,61.3,46.4,30.07,ESE,116,0.0,3.0,58,0.00,,CLR,0.00,VWS V14.01,2013-02-01 23:47:00,
2013-02-01 15:52:00,60.9,46.9,30.07,SE,145,1.0,4.0,60,0.00,,CLR,0.00,VWS V14.01,2013-02-01 23:52:00,
2013-02-01 15:57:00,60.4,47.3,30.07,SE,131,1.0,4.0,62,0.00,,CLR,0.00,VWS V14.01,2013-02-01 23:57:00,
2013-02-01 16:00:00,60.1,47.5,30.07,South,171,1.0,4.0,63,0.00,,CLR,0.00,VWS V14.01,2013-02-02 00:00:00,
2013-02-01 16:02:00,59.9,47.7,30.07,SSE,167,1.0,1.0,64,0.00,,CLR,0.00,VWS V14.01,2013-02-02 00:02:00,
2013-02-01 16:07:00,59.5,47.7,30.07,ESE,116,2.0,4.0,65,0.00,,CLR,0.00,VWS V14.01,2013-02-02 00:07:00,
2013-02-01 16:12:00,59.2,47.5,30.07,East,96,0.0,4.0,65,0.00,,CLR,0.00,VWS V14.01,2013-02-02 00:12:00,
2013-02-01 16:15:00,59.0,47.7,30.09,East,96,0.0,4.0,66,0.00,,CLR,0.00,VWS V14.01,2013-02-02 00:15:00,
2013-02-01 16:17:00,59.0,47.7,30.08,East,96,0.0,0.0,66,0.00,,CLR,0.00,VWS V14.01,2013-02-02 00:17:00,
2013-02-01 16:22:00,58.7,47.8,30.08,SE,132,2.0,4.0,67,0.00,,CLR,0.00,VWS V14.01,2013-02-02 00:22:00,
2013-02-01 16:27:00,58.4,47.9,30.08,SSE,148,0.0,4.0,68,0.00,,CLR,0.00,VWS V14.01,2013-02-02 00:27:00,
2013-02-01 16:30:00,57.8,48.1,30.09,ESE,105,2.0,4.0,70,0.00,,CLR,0.00,VWS V14.01,2013-02-02 00:30:00,
2013-02-01 16:32:00,57.8,48.5,30.09,East,96,3.0,5.0,71,0.00,,CLR,0.00,VWS V14.01,2013-02-02 00:32:00,
2013-02-01 16:37:00,56.5,47.6,30.09,ENE,61,1.0,5.0,72,0.00,,CLR,0.00,VWS V14.01,2013-02-02 00:37:00,
2013-02-01 16:42:00,55.3,48.2,30.09,East,83,3.0,7.0,77,0.00,,CLR,0.00,VWS V14.01,2013-02-02 00:42:00,
2013-02-01 16:45:00,54.2,47.8,30.10,East,83,3.0,7.0,79,0.00,,CLR,0.00,VWS V14.01,2013-02-02 00:45:00,
2013-02-01 16:47:00,54.2,47.8,30.10,East,83,3.0,3.0,79,0.00,,,0.00,VWS V14.01,2013-02-02 00:47:00,
2013-02-01 16:52:00,53.3,48.0,30.10,East,82,4.0,6.0,82,0.00,,,0.00,VWS V14.01,2013-02-02 00:52:00,
2013-02-01 16:57:00,52.8,47.8,30.10,ENE,58,4.0,6.0,83,0.00,,,0.00,VWS V14.01,2013-02-02 00:57:00,
2013-02-01 17:00:00,52.2,47.8,30.10,NE,54,2.0,6.0,85,0.00,,CLR,0.00,VWS V14.01,2013-02-02 01:00:00,
2013-02-01 17:02:00,52.2,47.8,30.10,NE,54,2.0,2.0,85,0.00,,,0.00,VWS V14.01,2013-02-02 01:02:00,
2013-02-01 17:07:00,51.9,47.8,30.10,ENE,62,3.0,4.0,86,0.00,,,0.00,VWS V14.01,2013-02-02 01:07:00,
2013-02-01 17:12:00,51.6,47.9,30.10,ENE,62,2.0,4.0,87,0.00,,,0.00,VWS V14.01,2013-02-02 01:12:00,
2013-02-01 17:15:00,51.3,47.6,30.09,ENE,63,4.0,4.0,87,0.00,,CLR,0.00,VWS V14.01,2013-02-02 01:15:00,
2013-02-01 17:17:00,51.3,47.6,30.09,ENE,62,2.0,4.0,87,0.00,,,0.00,VWS V14.01,2013-02-02 01:17:00,
2013-02-01 17:22:00,51.1,47.7,30.09,ENE,63,0.0,4.0,88,0.00,,,0.00,VWS V14.01,2013-02-02 01:22:00,
2013-02-01 17:27:00,50.8,47.7,30.09,ENE,62,2.0,4.0,89,0.00,,,0.00,VWS V14.01,2013-02-02 01:27:00,
2013-02-01 17:30:00,50.7,47.9,30.10,ENE,63,2.0,4.0,90,0.00,,CLR,0.00,VWS V14.01,2013-02-02 01:30:00,
2013-02-01 17:32:00,50.5,47.7,30.10,ENE,63,2.0,2.0,90,0.00,,,0.00,VWS V14.01,2013-02-02 01:32:00,
2013-02-01 17:37:00,50.4,47.6,30.10,ENE,63,0.0,3.0,90,0.00,,,0.00,VWS V14.01,2013-02-02 01:37:00,
2013-02-01 17:42:00,50.2,47.1,30.10,ENE,63,1.0,3.0,89,0.00,,,0.00,VWS V14.01,2013-02-02 01:42:00,
2013-02-01 17:45:00,50.1,46.4,30.11,ENE,63,0.0,3.0,87,0.00,,CLR,0.00,VWS V14.01,2013-02-02 01:45:00,
2013-02-01 17:47:00,50.1,46.4,30.11,ENE,63,0.0,0.0,87,0.00,,,0.00,VWS V14.01,2013-02-02 01:47:00,
2013-02-01 17:53:00,50.1,45.5,30.11,ENE,62,0.0,0.0,84,0.00,,,0.00,VWS V14.01,2013-02-02 01:53:00,
2013-02-01 17:58:00,50.2,44.6,30.11,ENE,63,0.0,2.0,81,0.00,,,0.00,VWS V14.01,2013-02-02 01:58:00,
2013-02-01 18:00:00,50.5,44.9,30.11,ENE,63,0.0,2.0,81,0.00,,CLR,0.00,VWS V14.01,2013-02-02 02:00:00,
2013-02-01 18:03:00,50.5,44.9,30.11,ENE,63,0.0,0.0,81,0.00,,,0.00,VWS V14.01,2013-02-02 02:03:00,
2013-02-01 18:08:00,50.7,44.4,30.11,ENE,63,0.0,0.0,79,0.00,,,0.00,VWS V14.01,2013-02-02 02:08:00,
2013-02-01 18:13:00,51.0,43.7,30.11,ENE,63,0.0,0.0,76,0.00,,,0.00,VWS V14.01,2013-02-02 02:13:00,
2013-02-01 18:15:00,51.1,43.5,30.12,ENE,63,0.0,0.0,75,0.00,,CLR,0.00,VWS V14.01,2013-02-02 02:15:00,
2013-02-01 18:18:00,51.1,43.5,30.12,ENE,63,0.0,0.0,75,0.00,,,0.00,VWS V14.01,2013-02-02 02:18:00,
2013-02-01 18:23:00,51.3,43.7,30.12,ENE,63,0.0,0.0,75,0.00,,,0.00,VWS V14.01,2013-02-02 02:23:00,
2013-02-01 18:28:00,51.6,44.0,30.12,ENE,63,0.0,0.0,75,0.00,,,0.00,VWS V14.01,2013-02-02 02:28:00,
2013-02-01 18:30:00,51.4,43.4,30.12,ENE,63,0.0,0.0,74,0.00,,CLR,0.00,VWS V14.01,2013-02-02 02:30:00,
2013-02-01 18:33:00,51.4,43.4,30.12,ENE,62,0.0,0.0,74,0.00,,,0.00,VWS V14.01,2013-02-02 02:33:00,
2013-02-01 18:38:00,51.7,43.0,30.12,ENE,63,1.0,2.0,72,0.00,,,0.00,VWS V14.01,2013-02-02 02:38:00,
2013-02-01 18:43:00,52.2,42.7,30.12,ENE,63,1.0,2.0,70,0.00,,,0.00,VWS V14.01,2013-02-02 02:43:00,
2013-02-01 18:45:00,52.5,42.3,30.12,ENE,63,1.0,2.0,68,0.00,,CLR,0.00,VWS V14.01,2013-02-02 02:45:00,
2013-02-01 18:48:00,52.6,42.0,30.12,ENE,63,1.0,1.0,67,0.00,,OVC005,0.00,VWS V14.01,2013-02-02 02:48:00,
2013-02-01 18:53:00,53.3,41.8,30.12,ENE,63,0.0,2.0,65,0.00,,OVC005,0.00,VWS V14.01,2013-02-02 02:53:00,
2013-02-01 18:58:00,53.9,41.6,30.12,ENE,63,0.0,2.0,63,0.00,,OVC005,0.00,VWS V14.01,2013-02-02 02:58:00,
2013-02-01 19:00:00,54.1,41.4,30.12,ENE,63,0.0,2.0,62,0.00,,CLR,0.00,VWS V14.01,2013-02-02 03:00:00,
2013-02-01 19:03:00,54.1,41.4,30.12,ENE,63,0.0,0.0,62,0.00,,OVC005,0.00,VWS V14.01,2013-02-02 03:03:00,
2013-02-01 19:08:00,54.2,40.6,30.12,ENE,63,0.0,0.0,60,0.00,,OVC005,0.00,VWS V14.01,2013-02-02 03:08:00,
2013-02-01 19:13:00,54.4,40.8,30.12,ENE,63,0.0,0.0,60,0.00,,OVC005,0.00,VWS V14.01,2013-02-02 03:13:00,
2013-02-01 19:15:00,54.8,40.8,30.12,ENE,63,3.0,3.0,59,0.00,,CLR,0.00,VWS V14.01,2013-02-02 03:15:00,
2013-02-01 19:18:00,55.0,41.4,30.12,ENE,63,2.0,3.0,60,0.00,,OVC005,0.00,VWS V14.01,2013-02-02 03:18:00,
2013-02-01 19:23:00,55.0,41.8,30.12,ENE,63,2.0,3.0,61,0.00,,OVC005,0.00,VWS V14.01,2013-02-02 03:23:00,
2013-02-01 19:28:00,54.8,41.2,30.12,ENE,63,2.0,3.0,60,0.00,,OVC005,0.00,VWS V14.01,2013-02-02 03:28:00,
2013-02-01 19:30:00,54.7,42.4,30.12,WNW,285,3.0,4.0,63,0.00,,CLR,0.00,VWS V14.01,2013-02-02 03:30:00,
2013-02-01 19:33:00,54.7,42.8,30.12,WNW,285,3.0,4.0,64,0.00,,OVC005,0.00,VWS V14.01,2013-02-02 03:33:00,
2013-02-01 19:38:00,54.4,43.3,30.12,West,278,5.0,5.0,66,0.00,,OVC005,0.00,VWS V14.01,2013-02-02 03:38:00,
2013-02-01 19:43:00,53.8,44.6,30.12,West,278,5.0,5.0,71,0.00,,OVC005,0.00,VWS V14.01,2013-02-02 03:43:00,
2013-02-01 19:45:00,53.6,45.5,30.12,West,278,4.0,5.0,74,0.00,,CLR,0.00,VWS V14.01,2013-02-02 03:45:00,
2013-02-01 19:48:00,53.5,45.4,30.12,West,278,3.0,4.0,74,0.00,,,0.00,VWS V14.01,2013-02-02 03:48:00,
2013-02-01 19:53:00,53.3,45.6,30.12,WNW,287,4.0,5.0,75,0.00,,,0.00,VWS V14.01,2013-02-02 03:53:00,
2013-02-01 19:58:00,53.3,44.9,30.12,WNW,287,3.0,5.0,73,0.00,,,0.00,VWS V14.01,2013-02-02 03:58:00,
2013-02-01 20:00:00,53.5,44.7,30.13,WNW,287,3.0,5.0,72,0.00,,CLR,0.00,VWS V14.01,2013-02-02 04:00:00,
2013-02-01 20:03:00,53.5,44.7,30.13,WNW,287,3.0,3.0,72,0.00,,,0.00,VWS V14.01,2013-02-02 04:03:00,
2013-02-01 20:08:00,53.6,44.8,30.13,WNW,287,2.0,3.0,72,0.00,,,0.00,VWS V14.01,2013-02-02 04:08:00,
2013-02-01 20:13:00,53.5,45.1,30.13,WNW,287,2.0,3.0,73,0.00,,,0.00,VWS V14.01,2013-02-02 04:13:00,
2013-02-01 20:15:00,53.5,45.4,30.13,WNW,287,3.0,3.0,74,0.00,,CLR,0.00,VWS V14.01,2013-02-02 04:15:00,
2013-02-01 20:18:00,53.3,45.2,30.13,WNW,287,3.0,3.0,74,0.00,,,0.00,VWS V14.01,2013-02-02 04:18:00,
2013-02-01 20:23:00,53.2,45.1,30.13,WNW,287,2.0,3.0,74,0.00,,,0.00,VWS V14.01,2013-02-02 04:23:00,
2013-02-01 20:28:00,53.1,44.7,30.13,WNW,287,0.0,3.0,73,0.00,,,0.00,VWS V14.01,2013-02-02 04:28:00,
2013-02-01 20:30:00,52.8,44.4,30.14,WNW,287,2.0,3.0,73,0.00,,CLR,0.00,VWS V14.01,2013-02-02 04:30:00,
2013-02-01 20:33:00,52.8,44.0,30.14,WNW,287,2.0,2.0,72,0.00,,,0.00,VWS V14.01,2013-02-02 04:33:00,
2013-02-01 20:38:00,52.3,42.8,30.14,WNW,287,3.0,3.0,70,0.00,,,0.00,VWS V14.01,2013-02-02 04:38:00,
2013-02-01 20:43:00,52.3,43.2,30.14,WNW,287,0.0,3.0,71,0.00,,,0.00,VWS V14.01,2013-02-02 04:43:00,
2013-02-01 20:45:00,52.3,43.2,30.14,WNW,287,0.0,3.0,71,0.00,,CLR,0.00,VWS V14.01,2013-02-02 04:45:00,
2013-02-01 20:48:00,52.3,43.2,30.14,WNW,287,2.0,2.0,71,0.00,,,0.00,VWS V14.01,2013-02-02 04:48:00,
2013-02-01 20:53:00,52.5,43.8,30.14,WNW,287,2.0,2.0,72,0.00,,,0.00,VWS V14.01,2013-02-02 04:53:00,
2013-02-01 20:58:00,52.6,43.8,30.14,WNW,287,0.0,2.0,72,0.00,,,0.00,VWS V14.01,2013-02-02 04:58:00,
2013-02-01 21:00:00,52.6,43.8,30.14,WNW,287,0.0,2.0,72,0.00,,,0.00,VWS V14.01,2013-02-02 05:00:00,
2013-02-01 21:01:00,52.6,43.8,30.13,WNW,287,0.0,2.0,72,0.00,,,0.00,VWS V14.01,2013-02-02 05:01:00,
2013-02-01 21:06:00,52.8,43.7,30.13,WNW,287,0.0,0.0,71,0.00,,,0.00,VWS V14.01,2013-02-02 05:06:00,
2013-02-01 21:11:00,52.8,43.3,30.13,WNW,287,2.0,3.0,70,0.00,,,0.00,VWS V14.01,2013-02-02 05:11:00,
2013-02-01 21:16:00,52.9,43.0,30.13,WNW,287,2.0,3.0,69,0.00,,,0.00,VWS V14.01,2013-02-02 05:16:00,
2013-02-01 21:21:00,52.9,42.6,30.13,WNW,287,0.0,2.0,68,0.00,,,0.00,VWS V14.01,2013-02-02 05:21:00,
2013-02-01 21:26:00,53.1,42.1,30.13,WNW,287,0.0,2.0,66,0.00,,,0.00,VWS V14.01,2013-02-02 05:26:00,
2013-02-01 21:30:00,53.5,42.4,30.13,WNW,287,1.0,2.0,66,0.00,,CLR,0.00,VWS V14.01,2013-02-02 05:30:00,
2013-02-01 21:31:00,53.3,42.2,30.13,WNW,287,2.0,2.0,66,0.00,,,0.00,VWS V14.01,2013-02-02 05:31:00,
2013-02-01 21:36:00,53.5,42.0,30.13,WNW,287,3.0,3.0,65,0.00,,,0.00,VWS V14.01,2013-02-02 05:36:00,
2013-02-01 21:41:00,53.5,42.0,30.13,WNW,287,3.0,3.0,65,0.00,,,0.00,VWS V14.01,2013-02-02 05:41:00,
2013-02-01 21:45:00,53.5,41.6,30.13,WNW,287,2.0,3.0,64,0.00,,CLR,0.00,VWS V14.01,2013-02-02 05:45:00,
2013-02-01 21:46:00,53.5,41.6,30.13,WNW,287,2.0,3.0,64,0.00,,,0.00,VWS V14.01,2013-02-02 05:46:00,
2013-02-01 21:51:00,53.6,41.3,30.13,WNW,287,1.0,2.0,63,0.00,,,0.00,VWS V14.01,2013-02-02 05:51:00,
2013-02-01 21:56:00,53.6,40.9,30.13,WNW,287,0.0,2.0,62,0.00,,,0.00,VWS V14.01,2013-02-02 05:56:00,
2013-02-01 22:00:00,53.8,41.5,30.13,WNW,287,2.0,3.0,63,0.00,,CLR,0.00,VWS V14.01,2013-02-02 06:00:00,
2013-02-01 22:01:00,53.8,41.5,30.13,WNW,287,3.0,3.0,63,0.00,,,0.00,VWS V14.01,2013-02-02 06:01:00,
2013-02-01 22:06:00,53.6,41.3,30.13,WNW,287,2.0,3.0,63,0.00,,,0.00,VWS V14.01,2013-02-02 06:06:00,
2013-02-01 22:11:00,53.8,41.1,30.13,WNW,287,2.0,3.0,62,0.00,,,0.00,VWS V14.01,2013-02-02 06:11:00,
2013-02-01 22:15:00,53.9,41.2,30.13,WNW,287,3.0,3.0,62,0.00,,CLR,0.00,VWS V14.01,2013-02-02 06:15:00,
2013-02-01 22:16:00,53.9,41.2,30.13,WNW,287,2.0,3.0,62,0.00,,,0.00,VWS V14.01,2013-02-02 06:16:00,
2013-02-01 22:21:00,53.9,41.2,30.13,WNW,287,3.0,3.0,62,0.00,,,0.00,VWS V14.01,2013-02-02 06:21:00,
2013-02-01 22:26:00,53.9,41.2,30.13,WNW,287,2.0,3.0,62,0.00,,,0.00,VWS V14.01,2013-02-02 06:26:00,
2013-02-01 22:30:00,53.9,41.2,30.13,WNW,287,2.0,3.0,62,0.00,,CLR,0.00,VWS V14.01,2013-02-02 06:30:00,
2013-02-01 22:31:00,53.9,41.2,30.13,WNW,287,2.0,3.0,62,0.00,,,0.00,VWS V14.01,2013-02-02 06:31:00,
2013-02-01 22:36:00,53.9,41.2,30.13,WNW,287,1.0,2.0,62,0.00,,,0.00,VWS V14.01,2013-02-02 06:36:00,
2013-02-01 22:41:00,53.9,40.8,30.13,WNW,287,2.0,2.0,61,0.00,,,0.00,VWS V14.01,2013-02-02 06:41:00,
2013-02-01 22:45:00,53.9,40.8,30.14,WNW,287,2.0,3.0,61,0.00,,CLR,0.00,VWS V14.01,2013-02-02 06:45:00,
2013-02-01 22:46:00,53.9,40.8,30.14,WNW,287,1.0,3.0,61,0.00,,,0.00,VWS V14.01,2013-02-02 06:46:00,
2013-02-01 22:51:00,53.9,40.8,30.14,WNW,287,0.0,2.0,61,0.00,,,0.00,VWS V14.01,2013-02-02 06:51:00,
2013-02-01 22:56:00,53.9,41.2,30.14,WNW,287,1.0,2.0,62,0.00,,,0.00,VWS V14.01,2013-02-02 06:56:00,
2013-02-01 23:00:00,53.9,40.8,30.14,WNW,287,0.0,2.0,61,0.00,,CLR,0.00,VWS V14.01,2013-02-02 07:00:00,
2013-02-01 23:01:00,53.9,40.8,30.14,WNW,287,0.0,2.0,61,0.00,,,0.00,VWS V14.01,2013-02-02 07:01:00,
2013-02-01 23:06:00,53.9,40.8,30.14,WNW,287,0.0,0.0,61,0.00,,,0.00,VWS V14.01,2013-02-02 07:06:00,
2013-02-01 23:11:00,53.9,40.8,30.14,WNW,287,0.0,0.0,61,0.00,,,0.00,VWS V14.01,2013-02-02 07:11:00,
2013-02-01 23:15:00,53.9,40.8,30.14,WNW,287,1.0,2.0,61,0.00,,CLR,0.00,VWS V14.01,2013-02-02 07:15:00,
2013-02-01 23:16:00,53.9,40.8,30.14,WNW,287,1.0,2.0,61,0.00,,,0.00,VWS V14.01,2013-02-02 07:16:00,
2013-02-01 23:21:00,54.1,41.0,30.14,WNW,287,1.0,2.0,61,0.00,,,0.00,VWS V14.01,2013-02-02 07:21:00,
2013-02-01 23:26:00,54.1,41.0,30.14,WNW,287,0.0,2.0,61,0.00,,,0.00,VWS V14.01,2013-02-02 07:26:00,
2013-02-01 23:30:00,54.1,40.5,30.14,WNW,287,0.0,2.0,60,0.00,,CLR,0.00,VWS V14.01,2013-02-02 07:30:00,
2013-02-01 23:31:00,54.1,40.5,30.14,WNW,287,0.0,2.0,60,0.00,,,0.00,VWS V14.01,2013-02-02 07:31:00,
2013-02-01 23:36:00,54.1,41.0,30.14,WNW,287,0.0,0.0,61,0.00,,,0.00,VWS V14.01,2013-02-02 07:36:00,
2013-02-01 23:41:00,54.1,41.0,30.14,WNW,287,0.0,0.0,61,0.00,,,0.00,VWS V14.01,2013-02-02 07:41:00,
2013-02-01 23:45:00,53.6,40.9,30.14,WNW,287,0.0,0.0,62,0.00,,CLR,0.00,VWS V14.01,2013-02-02 07:45:00,
2013-02-01 23:46:00,53.8,40.7,30.14,WNW,287,0.0,0.0,61,0.00,,,0.00,VWS V14.01,2013-02-02 07:46:00,
2013-02-01 23:51:00,53.5,40.8,30.14,WNW,287,1.0,1.0,62,0.00,,,0.00,VWS V14.01,2013-02-02 07:51:00,
2013-02-01 23:56:00,53.2,41.0,30.14,WNW,287,1.0,2.0,63,0.00,,,0.00,VWS V14.01,2013-02-02 07:56:00,